| time (UTC) | temp C | wind direction | speed KPH | gust KPH | rain 1hr cm | rain 24hr cm | rain mn cm | humidity % | barometer mb |
| 20260506111532 | 13 | 136 | 0.0 | 6.4 | 0.00 | 0.00 | 0.00 | 58 | 1011.9 |
| 20260506110036 | 13 | 134 | 1.6 | 11.3 | 0.00 | 0.00 | 0.00 | 57 | 1011.9 |
| 20260506104540 | 13 | 158 | 1.6 | 6.4 | 0.00 | 0.00 | 0.00 | 57 | 1011.7 |
| 20260506103041 | 13 | 0 | 0.0 | 8.0 | 0.00 | 0.00 | 0.00 | 56 | 1011.5 |
| 20260506101545 | 13 | 154 | 0.0 | 9.7 | 0.00 | 0.00 | 0.00 | 57 | 1011.1 |
| 20260506100034 | 13 | 171 | 1.6 | 6.4 | 0.00 | 0.00 | 0.00 | 57 | 1010.9 |
| 20260506094540 | 13 | 113 | 0.0 | 6.4 | 0.00 | 0.00 | 0.00 | 57 | 1010.8 |
| 20260506093033 | 13 | 154 | 1.6 | 4.8 | 0.00 | 0.00 | 0.00 | 57 | 1010.6 |
| 20260506091532 | 14 | 139 | 1.6 | 8.0 | 0.00 | 0.00 | 0.00 | 57 | 1010.5 |
| 20260506090033 | 14 | 115 | 1.6 | 6.4 | 0.00 | 0.00 | 0.00 | 57 | 1010.5 |
| 20260506084541 | 14 | 198 | 0.0 | 6.4 | 0.00 | 0.00 | 0.00 | 58 | 1010.3 |
| 20260506083037 | 15 | 0 | 0.0 | 6.4 | 0.00 | 0.00 | 0.00 | 58 | 1010.0 |
| 20260506081534 | 15 | 0 | 0.0 | 4.8 | 0.00 | 0.00 | 0.00 | 59 | 1010.0 |
| 20260506073037 | 15 | 127 | 0.0 | 4.8 | 0.00 | 0.00 | 0.00 | 58 | 1009.4 |
| 20260506071537 | 15 | 153 | 0.0 | 3.2 | 0.00 | 0.00 | 0.00 | 58 | 1009.7 |
| 20260506061538 | 15 | 162 | 0.0 | 3.2 | 0.00 | 0.00 | 0.00 | 59 | 1009.6 |
| 20260506044534 | 17 | 0 | 0.0 | 6.4 | 0.00 | 0.00 | 0.00 | 60 | 1009.6 |
| 20260506043038 | 17 | 176 | 0.0 | 6.4 | 0.00 | 0.00 | 0.00 | 59 | 1009.7 |
| 20260506041536 | 17 | 158 | 1.6 | 8.0 | 0.00 | 0.00 | 0.00 | 59 | 1009.7 |
| 20260506040039 | 17 | 0 | 1.6 | 6.4 | 0.00 | 0.00 | 0.00 | 58 | 1009.5 |
| 20260506034534 | 18 | 140 | 0.0 | 6.4 | 0.00 | 0.00 | 0.00 | 59 | 1008.9 |
| 20260506033035 | 18 | 119 | 0.0 | 8.0 | 0.00 | 0.00 | 0.00 | 57 | 1008.4 |
| 20260506031538 | 18 | 183 | 0.0 | 4.8 | 0.00 | 0.00 | 0.00 | 57 | 1008.5 |
| 20260506030035 | 19 | 175 | 1.6 | 8.0 | 0.00 | 0.00 | 0.00 | 56 | 1008.1 |
| 20260506024536 | 20 | 134 | 0.0 | 4.8 | 0.00 | 0.00 | 0.00 | 56 | 1007.9 |
| 20260506023046 | 20 | 148 | 0.0 | 3.2 | 0.00 | 0.00 | 0.00 | 56 | 1007.6 |
| 20260506021536 | 20 | 0 | 0.0 | 3.2 | 0.00 | 0.00 | 0.00 | 55 | 1007.1 |
| 20260506020034 | 20 | 0 | 0.0 | 3.2 | 0.00 | 0.00 | 0.00 | 54 | 1007.2 |
| 20260506014533 | 20 | 0 | 0.0 | 3.2 | 0.00 | 0.00 | 0.00 | 53 | 1006.4 |
| 20260506013037 | 21 | 0 | 0.0 | 8.0 | 0.00 | 0.00 | 0.00 | 53 | 1006.3 |
| 20260506011535 | 21 | 0 | 0.0 | 3.2 | 0.00 | 0.00 | 0.00 | 53 | 1006.2 |
| 20260506010047 | 21 | 161 | 0.0 | 11.3 | 0.00 | 0.00 | 0.00 | 52 | 1006.0 |
| 20260506004543 | 22 | 0 | 0.0 | 4.8 | 0.00 | 0.00 | 0.00 | 52 | 1005.5 |
| 20260506003038 | 22 | 109 | 1.6 | 6.4 | 0.00 | 0.00 | 0.00 | 51 | 1005.1 |
| 20260506001544 | 23 | 0 | 1.6 | 6.4 | 0.00 | 0.00 | 0.00 | 50 | 1004.9 |
| 20260506000034 | 24 | 138 | 1.6 | 6.4 | 0.00 | 0.00 | 0.00 | 49 | 1004.9 |
| 20260505234556 | 25 | 85 | 1.6 | 4.8 | 0.00 | 0.00 | 0.00 | 47 | 1004.7 |
| 20260505233039 | 26 | 118 | 0.0 | 8.0 | 0.00 | 0.00 | 0.00 | 46 | 1004.6 |
| 20260505231534 | 26 | 136 | 1.6 | 8.0 | 0.00 | 0.00 | 0.00 | 45 | 1004.5 |
| 20260505230034 | 27 | 122 | 0.0 | 6.4 | 0.00 | 0.00 | 0.00 | 44 | 1004.4 |
| 20260505224539 | 28 | 158 | 0.0 | 3.2 | 0.00 | 0.00 | 0.00 | 42 | 1003.9 |
| 20260505223040 | 29 | 0 | 0.0 | 4.8 | 0.00 | 0.00 | 0.00 | 39 | 1003.9 |
| 20260505221532 | 30 | 0 | 0.0 | 4.8 | 0.00 | 0.00 | 0.00 | 37 | 1003.6 |
| 20260505220036 | 31 | 0 | 0.0 | 4.8 | 0.00 | 0.00 | 0.00 | 35 | 1003.3 |
| 20260505214557 | 32 | 0 | 0.0 | 4.8 | 0.00 | 0.00 | 0.00 | 33 | 1003.6 |
| 20260505213036 | 34 | 126 | 0.0 | 3.2 | 0.00 | 0.00 | 0.00 | 33 | 1003.4 |
| 20260505211535 | 34 | 122 | 0.0 | 4.8 | 0.00 | 0.00 | 0.00 | 30 | 1003.4 |
| 20260505210034 | 33 | 316 | 0.0 | 4.8 | 0.00 | 0.00 | 0.00 | 34 | 1003.5 |
| 20260505204531 | 33 | 125 | 1.6 | 4.8 | 0.00 | 0.00 | 0.00 | 32 | 1003.5 |
| 20260505203040 | 33 | 197 | 1.6 | 6.4 | 0.00 | 0.00 | 0.00 | 34 | 1003.7 |
| 20260505201537 | 33 | 112 | 1.6 | 8.0 | 0.00 | 0.00 | 0.00 | 37 | 1003.9 |
| 20260505200034 | 32 | 95 | 1.6 | 6.4 | 0.00 | 0.00 | 0.00 | 37 | 1003.9 |
| 20260505194544 | 32 | 124 | 0.0 | 6.4 | 0.00 | 0.00 | 0.00 | 40 | 1004.0 |
| 20260505193034 | 31 | 119 | 3.2 | 14.5 | 0.00 | 0.00 | 0.00 | 41 | 1004.2 |
| 20260505191538 | 31 | 98 | 1.6 | 8.0 | 0.00 | 0.00 | 0.00 | 45 | 1004.0 |
| 20260505190031 | 30 | 99 | 3.2 | 9.7 | 0.00 | 0.00 | 0.00 | 45 | 1004.2 |
| 20260505184538 | 29 | 105 | 1.6 | 9.7 | 0.00 | 0.00 | 0.00 | 48 | 1004.3 |
| 20260505183038 | 28 | 110 | 1.6 | 6.4 | 0.00 | 0.00 | 0.00 | 49 | 1004.4 |
| 20260505181537 | 28 | 8 | 3.2 | 17.7 | 0.00 | 0.00 | 0.00 | 49 | 1004.3 |
| 20260505180057 | 28 | 114 | 1.6 | 8.0 | 0.00 | 0.00 | 0.00 | 49 | 1004.5 |
| 20260505174556 | 28 | 19 | 3.2 | 9.7 | 0.00 | 0.00 | 0.00 | 50 | 1004.5 |
| 20260505173037 | 27 | 76 | 1.6 | 11.3 | 0.00 | 0.00 | 0.00 | 51 | 1004.3 |
| 20260505171537 | 27 | 72 | 4.8 | 17.7 | 0.00 | 0.00 | 0.00 | 50 | 1004.4 |
| 20260505170037 | 27 | 49 | 3.2 | 8.0 | 0.00 | 0.00 | 0.00 | 52 | 1004.5 |
| 20260505164535 | 26 | 31 | 1.6 | 12.9 | 0.00 | 0.00 | 0.00 | 54 | 1004.5 |
| 20260505163035 | 26 | 354 | 4.8 | 17.7 | 0.00 | 0.00 | 0.00 | 54 | 1004.4 |
| 20260505161537 | 26 | 120 | 4.8 | 14.5 | 0.00 | 0.00 | 0.00 | 54 | 1004.3 |
| 20260505153036 | 25 | 121 | 3.2 | 19.3 | 0.00 | 0.00 | 0.00 | 58 | 1004.2 |
| 20260505151535 | 25 | 21 | 3.2 | 11.3 | 0.00 | 0.00 | 0.00 | 58 | 1004.0 |
| 20260505124538 | 21 | 48 | 0.0 | 6.4 | 0.00 | 0.00 | 0.00 | 67 | 1003.7 |
| 20260505123037 | 21 | 115 | 0.0 | 6.4 | 0.00 | 0.00 | 0.00 | 68 | 1003.5 |
| 20260505121535 | 21 | 107 | 0.0 | 17.7 | 0.00 | 0.00 | 0.00 | 68 | 1003.4 |
| 20260505120036 | 21 | 0 | 0.0 | 9.7 | 0.00 | 0.00 | 0.00 | 68 | 1003.4 |
| 20260505114537 | 21 | 139 | 0.0 | 8.0 | 0.00 | 0.00 | 0.00 | 67 | 1003.2 |
| 20260505113036 | 21 | 0 | 1.6 | 8.0 | 0.00 | 0.00 | 0.00 | 67 | 1003.0 |